sat.trackr.live / text

‹ back to catalog

WORLDVIEW-3 (WV-3)

NORAD 40115 · 2014-048A

PAYLOAD ACTIVE UNKNOWN

§ Identity

Operator
Country
US
Launch date
2014-08-13
Launch site
AFWTR
Launch vehicle
Mass (kg)
RCS (m²)
6.22

Purposes: earth_obs

External: N2YO · Heavens-Above · Gunter

§ Orbital elements

Epoch: 2026-09-15T22:11:42.724320Z

Period
96.96 min
Inclination
97.8492°
Eccentricity
0.0002264
Mean motion
14.85141527 rev/d
Perigee alt
611.6 km
Apogee alt
614.7 km
Semi-major
6,991.3 km
B*
7.3036e-5
RAAN
332.4754°
Arg perigee
54.8638°
Mean anomaly
305.2789°
Rev number
65,537

§ Raw data

WORLDVIEW-3 (WV-3)1 40115U 14048A   26258.92480005  .00000572  00000+0  73036-4 0  99952 40115  97.8492 332.4754 0002264  54.8638 305.2789 14.85141527655376

JSON: /api/v1/satellites/40115 · /tle

For live sub-satellite position, see the globe view (requires WebGL).

§ Visibility from observer

Set your observer location to see the next 7 days of passes ≥ 10°. The values pass through the URL so the page stays shareable.

No JS? Fill the form by hand. The geolocation button needs JavaScript.